TAM9210 SBRF-SBFN

Flight info

Callsign TAM9210
Flight time 0h 53m
Altitude 33000
Route MUNUG1A FNR DCT
Aircraft A320/M-SDE3FGHIRWY/LB1

Departure

Time 2026-04-26 20:33
Airport Recife/Guararapes - Gilberto Freyre International Airport (SBRF)

Arrival

Time 2026-04-26 21:26
Airport Fernando de Noronha Airport (SBFN)
Time Latitude Longitude Altitude Speed Heading
2026-04-26 20:18 -8.13084 -34.91932 38 ft 0 kts 75°
2026-04-26 20:25 -8.13084 -34.91935 38 ft 2 kts 75°
2026-04-26 20:25 -8.13089 -34.91951 36 ft 2 kts 74°
2026-04-26 20:26 -8.13092 -34.91962 35 ft 2 kts 72°
2026-04-26 20:26 -8.13099 -34.91983 37 ft 2 kts 68°
2026-04-26 20:26 -8.13103 -34.91993 36 ft 2 kts 61°
2026-04-26 20:26 -8.13113 -34.92006 35 ft 2 kts
2026-04-26 20:27 -8.13123 -34.92006 35 ft 1 kts 338°
2026-04-26 20:27 -8.13124 -34.92005 35 ft 0 kts 338°
2026-04-26 20:27 -8.13123 -34.92006 35 ft 0 kts 338°
2026-04-26 20:27 -8.13115 -34.92009 35 ft 4 kts 340°
2026-04-26 20:28 -8.13050 -34.92029 37 ft 15 kts 343°
2026-04-26 20:28 -8.12939 -34.92065 38 ft 17 kts 342°
2026-04-26 20:28 -8.12824 -34.92104 37 ft 21 kts 342°
2026-04-26 20:28 -8.12691 -34.92149 36 ft 19 kts 341°
2026-04-26 20:29 -8.12568 -34.92191 34 ft 18 kts 341°
2026-04-26 20:29 -8.12452 -34.92230 36 ft 17 kts 341°
2026-04-26 20:29 -8.12344 -34.92267 36 ft 16 kts 341°
2026-04-26 20:29 -8.12242 -34.92302 35 ft 15 kts 341°
2026-04-26 20:30 -8.12145 -34.92334 34 ft 14 kts 341°
2026-04-26 20:30 -8.12051 -34.92362 33 ft 14 kts 344°
2026-04-26 20:30 -8.11936 -34.92395 31 ft 19 kts 343°
2026-04-26 20:30 -8.11814 -34.92438 32 ft 18 kts 340°
2026-04-26 20:31 -8.11699 -34.92477 32 ft 17 kts 341°
2026-04-26 20:31 -8.11596 -34.92521 32 ft 15 kts 327°
2026-04-26 20:31 -8.11519 -34.92587 32 ft 14 kts 319°
2026-04-26 20:31 -8.11450 -34.92649 32 ft 13 kts 308°
2026-04-26 20:32 -8.11488 -34.92696 32 ft 15 kts 169°
2026-04-26 20:32 -8.11748 -34.92612 31 ft 73 kts 160°
2026-04-26 20:32 -8.12433 -34.92384 37 ft 131 kts 162°
2026-04-26 20:32 -8.13400 -34.92055 363 ft 149 kts 158°
2026-04-26 20:33 -8.14390 -34.91728 1005 ft 150 kts 160°
2026-04-26 20:33 -8.15399 -34.91403 1549 ft 159 kts 162°
2026-04-26 20:33 -8.16527 -34.91040 1825 ft 181 kts 162°
2026-04-26 20:33 -8.17803 -34.90628 2178 ft 201 kts 162°
2026-04-26 20:34 -8.19148 -34.90193 2918 ft 205 kts 162°
2026-04-26 20:34 -8.20465 -34.89544 3437 ft 224 kts 137°
2026-04-26 20:34 -8.21209 -34.88084 3824 ft 253 kts 99°
2026-04-26 20:34 -8.20885 -34.86293 4484 ft 272 kts 68°
2026-04-26 20:35 -8.19895 -34.84619 4859 ft 280 kts 57°
2026-04-26 20:35 -8.18703 -34.83076 4936 ft 279 kts 53°
2026-04-26 20:35 -8.17437 -34.81567 5099 ft 285 kts 53°
2026-04-26 20:35 -8.16164 -34.80037 6028 ft 284 kts 52°
2026-04-26 20:36 -8.14917 -34.78482 6894 ft 286 kts 54°
2026-04-26 20:36 -8.13685 -34.76889 7713 ft 288 kts 56°
2026-04-26 20:36 -8.12469 -34.75273 8538 ft 291 kts 55°
2026-04-26 20:36 -8.11269 -34.73652 9355 ft 293 kts 56°
2026-04-26 20:37 -8.10039 -34.71976 10142 ft 296 kts 54°
2026-04-26 20:37 -8.08770 -34.70244 10408 ft 318 kts 54°
2026-04-26 20:37 -8.07431 -34.68430 10779 ft 332 kts 54°
2026-04-26 20:37 -8.06034 -34.66551 11423 ft 337 kts 55°
2026-04-26 20:38 -8.04618 -34.64652 12096 ft 340 kts 53°
2026-04-26 20:38 -8.03188 -34.62742 12806 ft 342 kts 54°
2026-04-26 20:38 -8.01746 -34.60820 13462 ft 345 kts 53°
2026-04-26 20:38 -8.00292 -34.58881 14097 ft 347 kts 54°
2026-04-26 20:39 -7.98835 -34.56933 14688 ft 349 kts 54°
2026-04-26 20:39 -7.97362 -34.54960 15236 ft 353 kts 54°
2026-04-26 20:39 -7.95880 -34.52977 15768 ft 356 kts 54°
2026-04-26 20:39 -7.94238 -34.51096 15930 ft 360 kts 45°
2026-04-26 20:40 -7.92222 -34.49598 16129 ft 364 kts 31°
2026-04-26 20:40 -7.89933 -34.48478 16734 ft 367 kts 26°
2026-04-26 20:40 -7.87615 -34.47383 17278 ft 369 kts 27°
2026-04-26 20:40 -7.85286 -34.46269 17825 ft 372 kts 27°
2026-04-26 20:41 -7.82934 -34.45137 18320 ft 376 kts 27°
2026-04-26 20:41 -7.80565 -34.43996 18808 ft 378 kts 28°
2026-04-26 20:41 -7.78186 -34.42850 19257 ft 381 kts 28°
2026-04-26 20:41 -7.75781 -34.41693 19726 ft 384 kts 27°
2026-04-26 20:42 -7.73366 -34.40533 20197 ft 386 kts 27°
2026-04-26 20:42 -7.70926 -34.39365 20658 ft 389 kts 27°
2026-04-26 20:42 -7.68474 -34.38192 21132 ft 391 kts 28°
2026-04-26 20:42 -7.66006 -34.37011 21583 ft 394 kts 28°
2026-04-26 20:43 -7.63520 -34.35822 22048 ft 397 kts 28°
2026-04-26 20:43 -7.61015 -34.34623 22513 ft 400 kts 28°
2026-04-26 20:43 -7.58497 -34.33417 22971 ft 402 kts 28°
2026-04-26 20:43 -7.55958 -34.32203 23426 ft 405 kts 28°
2026-04-26 20:44 -7.53403 -34.30981 23811 ft 407 kts 28°
2026-04-26 20:44 -7.50837 -34.29754 24172 ft 410 kts 28°
2026-04-26 20:44 -7.48251 -34.28519 24530 ft 412 kts 28°
2026-04-26 20:44 -7.45654 -34.27279 24887 ft 414 kts 28°
2026-04-26 20:45 -7.43047 -34.26032 25227 ft 416 kts 28°
2026-04-26 20:45 -7.40421 -34.24778 25577 ft 419 kts 28°
2026-04-26 20:45 -7.37780 -34.23519 25914 ft 421 kts 28°
2026-04-26 20:45 -7.35159 -34.22271 26244 ft 423 kts 27°
2026-04-26 20:46 -7.32489 -34.20997 26559 ft 426 kts 27°
2026-04-26 20:46 -7.29806 -34.19714 26869 ft 428 kts 28°
2026-04-26 20:46 -7.27109 -34.18421 27175 ft 430 kts 27°
2026-04-26 20:46 -7.24395 -34.17120 27482 ft 433 kts 28°
2026-04-26 20:47 -7.21671 -34.15817 27795 ft 434 kts 27°
2026-04-26 20:47 -7.19857 -34.14952 28012 ft 436 kts 27°
2026-04-26 20:47 -7.16182 -34.13203 28407 ft 438 kts 27°
2026-04-26 20:47 -7.13417 -34.11887 28702 ft 440 kts 27°
2026-04-26 20:48 -7.10642 -34.10565 28983 ft 442 kts 27°
2026-04-26 20:48 -7.07851 -34.09235 29257 ft 444 kts 27°
2026-04-26 20:48 -7.05055 -34.07900 29537 ft 446 kts 27°
2026-04-26 20:48 -7.02241 -34.06552 29808 ft 448 kts 27°
2026-04-26 20:49 -6.99418 -34.05201 30065 ft 450 kts 27°
2026-04-26 20:49 -6.96582 -34.03844 30280 ft 452 kts 27°
2026-04-26 20:49 -6.93739 -34.02486 30518 ft 453 kts 27°
2026-04-26 20:49 -6.90912 -34.01145 30734 ft 455 kts 27°
2026-04-26 20:50 -6.88045 -33.99786 30963 ft 456 kts 27°
2026-04-26 20:50 -6.85170 -33.98421 31174 ft 457 kts 27°
2026-04-26 20:50 -6.82285 -33.97049 31397 ft 458 kts 26°
2026-04-26 20:50 -6.79408 -33.95677 31695 ft 457 kts 27°
2026-04-26 20:51 -6.76540 -33.94308 32021 ft 455 kts 27°
2026-04-26 20:51 -6.73677 -33.92940 32332 ft 454 kts 27°
2026-04-26 20:51 -6.70823 -33.91577 32660 ft 453 kts 26°
2026-04-26 20:51 -6.67981 -33.90221 32903 ft 453 kts 27°
2026-04-26 20:52 -6.65160 -33.88878 32961 ft 442 kts 27°
2026-04-26 20:52 -6.59680 -33.86272 32961 ft 431 kts 27°
2026-04-26 20:53 -6.54267 -33.83692 32957 ft 430 kts 27°
2026-04-26 20:53 -6.48893 -33.81133 32960 ft 430 kts 27°
2026-04-26 20:54 -6.43446 -33.78551 32961 ft 430 kts 26°
2026-04-26 20:54 -6.38033 -33.75981 32962 ft 430 kts 26°
2026-04-26 20:55 -6.32666 -33.73424 32966 ft 430 kts 26°
2026-04-26 20:55 -6.27262 -33.70851 32968 ft 429 kts 27°
2026-04-26 20:56 -6.21867 -33.68288 32958 ft 429 kts 27°
2026-04-26 20:56 -6.16468 -33.65727 32953 ft 429 kts 27°
2026-04-26 20:57 -6.11069 -33.63163 32952 ft 429 kts 27°
2026-04-26 20:57 -6.05669 -33.60598 32952 ft 429 kts 27°
2026-04-26 20:58 -6.00270 -33.58033 32951 ft 429 kts 27°
2026-04-26 20:58 -5.94867 -33.55472 32949 ft 430 kts 27°
2026-04-26 20:59 -5.89459 -33.52907 32949 ft 430 kts 27°
2026-04-26 20:59 -5.84054 -33.50345 32949 ft 430 kts 27°
2026-04-26 21:00 -5.78651 -33.47778 32947 ft 429 kts 27°
2026-04-26 21:00 -5.73250 -33.45210 32949 ft 429 kts 27°
2026-04-26 21:01 -5.67850 -33.42647 32963 ft 429 kts 27°
2026-04-26 21:01 -5.62461 -33.40096 32958 ft 428 kts 26°
2026-04-26 21:02 -5.57070 -33.37542 32958 ft 428 kts 27°
2026-04-26 21:02 -5.51684 -33.34987 32955 ft 428 kts 26°
2026-04-26 21:03 -5.46291 -33.32435 32957 ft 428 kts 26°
2026-04-26 21:03 -5.40900 -33.29886 32960 ft 428 kts 26°
2026-04-26 21:04 -5.35562 -33.27354 32763 ft 423 kts 26°
2026-04-26 21:04 -5.32917 -33.26099 32281 ft 419 kts 27°
2026-04-26 21:04 -5.30289 -33.24851 31783 ft 416 kts 27°
2026-04-26 21:04 -5.27680 -33.23614 31290 ft 414 kts 27°
2026-04-26 21:05 -5.25078 -33.22383 30804 ft 412 kts 27°
2026-04-26 21:05 -5.22492 -33.21162 30328 ft 410 kts 27°
2026-04-26 21:05 -5.19910 -33.19944 29828 ft 409 kts 27°
2026-04-26 21:05 -5.17342 -33.18730 29347 ft 406 kts 27°
2026-04-26 21:06 -5.14801 -33.17527 28896 ft 402 kts 27°
2026-04-26 21:06 -5.12282 -33.16334 28455 ft 399 kts 27°
2026-04-26 21:06 -5.09781 -33.15153 28016 ft 396 kts 27°
2026-04-26 21:06 -5.07305 -33.13982 27581 ft 393 kts 27°
2026-04-26 21:07 -5.04842 -33.12815 27130 ft 390 kts 27°
2026-04-26 21:07 -5.02397 -33.11655 26688 ft 388 kts 27°
2026-04-26 21:07 -4.99966 -33.10500 26237 ft 386 kts 27°
2026-04-26 21:07 -4.97540 -33.09350 25787 ft 384 kts 27°
2026-04-26 21:08 -4.95128 -33.08211 25322 ft 383 kts 27°
2026-04-26 21:08 -4.92719 -33.07077 24855 ft 382 kts 27°
2026-04-26 21:08 -4.90349 -33.05960 24380 ft 381 kts 27°
2026-04-26 21:08 -4.87952 -33.04828 23895 ft 381 kts 28°
2026-04-26 21:09 -4.85525 -33.03679 23375 ft 381 kts 28°
2026-04-26 21:09 -4.83164 -33.02560 22863 ft 379 kts 28°
2026-04-26 21:09 -4.80753 -33.01419 22380 ft 377 kts 28°
2026-04-26 21:09 -4.78420 -33.00317 21918 ft 375 kts 27°
2026-04-26 21:10 -4.76067 -32.99204 21453 ft 373 kts 27°
2026-04-26 21:10 -4.73724 -32.98098 20987 ft 371 kts 27°
2026-04-26 21:10 -4.71395 -32.96999 20517 ft 369 kts 27°
2026-04-26 21:10 -4.69071 -32.95903 20076 ft 368 kts 27°
2026-04-26 21:11 -4.66757 -32.94812 19622 ft 367 kts 27°
2026-04-26 21:11 -4.64449 -32.93722 19172 ft 366 kts 27°
2026-04-26 21:11 -4.62155 -32.92635 18722 ft 365 kts 27°
2026-04-26 21:11 -4.59870 -32.91552 18339 ft 362 kts 27°
2026-04-26 21:12 -4.57596 -32.90472 17929 ft 359 kts 27°
2026-04-26 21:12 -4.55336 -32.89402 17435 ft 358 kts 27°
2026-04-26 21:12 -4.53095 -32.88345 16966 ft 357 kts 27°
2026-04-26 21:12 -4.50866 -32.87296 16598 ft 353 kts 27°
2026-04-26 21:13 -4.49393 -32.86602 16304 ft 352 kts 27°
2026-04-26 21:13 -4.46470 -32.85224 15765 ft 350 kts 27°
2026-04-26 21:13 -4.44283 -32.84192 15330 ft 349 kts 27°
2026-04-26 21:13 -4.42105 -32.83163 15049 ft 343 kts 27°
2026-04-26 21:14 -4.40647 -32.82474 14775 ft 342 kts 27°
2026-04-26 21:14 -4.38517 -32.81468 14192 ft 335 kts 27°
2026-04-26 21:14 -4.36444 -32.80492 13800 ft 323 kts 27°
2026-04-26 21:14 -4.34446 -32.79550 13377 ft 311 kts 27°
2026-04-26 21:15 -4.32503 -32.78635 13008 ft 308 kts 27°
2026-04-26 21:15 -4.30567 -32.77720 12636 ft 307 kts 27°
2026-04-26 21:15 -4.28634 -32.76805 12256 ft 307 kts 27°
2026-04-26 21:15 -4.26729 -32.75905 11885 ft 306 kts 27°
2026-04-26 21:16 -4.24803 -32.74997 11499 ft 306 kts 27°
2026-04-26 21:16 -4.22878 -32.74089 11111 ft 306 kts 27°
2026-04-26 21:16 -4.20954 -32.73180 10732 ft 305 kts 27°
2026-04-26 21:16 -4.19033 -32.72271 10326 ft 305 kts 27°
2026-04-26 21:17 -4.17113 -32.71365 9925 ft 305 kts 27°
2026-04-26 21:17 -4.15212 -32.70469 9702 ft 298 kts 27°
2026-04-26 21:17 -4.13346 -32.69591 9291 ft 296 kts 27°
2026-04-26 21:17 -4.11483 -32.68714 8892 ft 295 kts 27°
2026-04-26 21:18 -4.09645 -32.67848 8306 ft 290 kts 27°
2026-04-26 21:18 -4.07853 -32.67001 7871 ft 279 kts 27°
2026-04-26 21:18 -4.06130 -32.66187 7470 ft 268 kts 27°
2026-04-26 21:18 -4.04473 -32.65407 7083 ft 259 kts 27°
2026-04-26 21:19 -4.02869 -32.64653 6710 ft 250 kts 27°
2026-04-26 21:19 -4.01313 -32.63920 6328 ft 244 kts 27°
2026-04-26 21:19 -3.99794 -32.63204 5938 ft 238 kts 27°
2026-04-26 21:19 -3.98317 -32.62508 5656 ft 228 kts 28°
2026-04-26 21:20 -3.96923 -32.61852 5608 ft 219 kts 27°
2026-04-26 21:20 -3.95571 -32.61216 5553 ft 208 kts 27°
2026-04-26 21:20 -3.94260 -32.60680 5447 ft 202 kts 19°
2026-04-26 21:20 -3.92875 -32.60421 5222 ft 204 kts
2026-04-26 21:21 -3.91460 -32.60320 4927 ft 203 kts
2026-04-26 21:21 -3.90057 -32.60216 4635 ft 201 kts
2026-04-26 21:21 -3.88662 -32.60111 4337 ft 200 kts
2026-04-26 21:21 -3.87290 -32.60006 4056 ft 199 kts
2026-04-26 21:22 -3.85921 -32.59839 3757 ft 197 kts 20°
2026-04-26 21:22 -3.84826 -32.59112 3480 ft 185 kts 54°
2026-04-26 21:22 -3.84314 -32.58003 3236 ft 170 kts 84°
2026-04-26 21:23 -3.84413 -32.55789 2781 ft 149 kts 97°
2026-04-26 21:23 -3.84489 -32.54771 2574 ft 145 kts 97°
2026-04-26 21:23 -3.84565 -32.53773 2371 ft 143 kts 96°
2026-04-26 21:23 -3.84640 -32.52785 2152 ft 143 kts 97°
2026-04-26 21:24 -3.84716 -32.51794 1948 ft 142 kts 97°
2026-04-26 21:24 -3.84792 -32.50811 1747 ft 141 kts 98°
2026-04-26 21:24 -3.84868 -32.49833 1559 ft 141 kts 98°
2026-04-26 21:24 -3.84945 -32.48851 1364 ft 143 kts 97°
2026-04-26 21:25 -3.85021 -32.47860 1184 ft 142 kts 97°
2026-04-26 21:25 -3.85096 -32.46875 977 ft 143 kts 98°
2026-04-26 21:25 -3.85172 -32.45877 805 ft 145 kts 95°
2026-04-26 21:25 -3.85249 -32.44873 591 ft 143 kts 97°
2026-04-26 21:26 -3.85308 -32.43887 364 ft 145 kts 98°
2026-04-26 21:26 -3.85399 -32.42877 176 ft 142 kts 98°
2026-04-26 21:26 -3.85462 -32.42081 175 ft 77 kts 95°
2026-04-26 21:26 -3.85492 -32.41703 176 ft 44 kts 92°
2026-04-26 21:27 -3.85474 -32.41498 176 ft 11 kts 56°
2026-04-26 21:27 -3.85483 -32.41480 176 ft 1 kts 193°
2026-04-26 21:27 -3.85503 -32.41498 176 ft 4 kts 230°
2026-04-26 21:27 -3.85503 -32.41523 176 ft 8 kts 274°
2026-04-26 21:28 -3.85498 -32.41614 177 ft 17 kts 274°
2026-04-26 21:28 -3.85491 -32.41758 176 ft 24 kts 275°
2026-04-26 21:28 -3.85471 -32.41926 176 ft 24 kts 274°
2026-04-26 21:28 -3.85459 -32.42085 175 ft 23 kts 274°
2026-04-26 21:29 -3.85449 -32.42245 169 ft 24 kts 274°
2026-04-26 21:29 -3.85437 -32.42412 168 ft 23 kts 275°
2026-04-26 21:29 -3.85425 -32.42567 169 ft 22 kts 274°
2026-04-26 21:29 -3.85415 -32.42715 166 ft 16 kts 274°
2026-04-26 21:30 -3.85425 -32.42739 166 ft 1 kts 187°
2026-04-26 21:30 -3.85475 -32.42745 167 ft 14 kts 194°
2026-04-26 21:30 -3.85559 -32.42786 170 ft 10 kts 230°
2026-04-26 21:30 -3.85572 -32.42822 170 ft 2 kts 218°
2026-04-26 21:31 -3.85579 -32.42823 170 ft 1 kts 188°
2026-04-26 21:31 -3.85586 -32.42822 170 ft 0 kts 180°
2026-04-26 21:31 -3.85591 -32.42822 170 ft 0 kts 180°